When you browse on this site, cookies collect data to enhance your experience and personalize the content and advertising you see.
Visit our Privacy Policy to learn more. By continuing to use the site, you agree to this use of cookies and data.
  • en Suisse
  • Liste des pays
  • À 7 jours
  • Température de l'eau
  • Carte satellitaire
  • Carte météo
  • Widgets météo
  • user-avatar
    Se connecter

    Météo par heure à Weinheim

    Ce jour, 26 Mai, Dimanche

    Heure Température Précipitation Vent Pression Humidité
    00:00 +14°C° 0 mm 1 m/s 750 mmHg 68%
    01:00 +14°C° 0 mm 1 m/s 750 mmHg 71%
    02:00 +13°C° 0 mm 1 m/s 750 mmHg 74%
    03:00 +13°C° 0 mm 1 m/s 750 mmHg 77%
    04:00 +11°C° 0 mm 0 m/s 750 mmHg 79%
    05:00 +13°C° 0 mm 1 m/s 750 mmHg 76%
    06:00 +14°C° 0 mm 1 m/s 750 mmHg 73%
    07:00 +16°C° 0 mm 1 m/s 750 mmHg 70%
    08:00 +18°C° 0 mm 1 m/s 750 mmHg 65%
    09:00 +19°C° 0 mm 2 m/s 750 mmHg 60%
    10:00 +20°C° 0 mm 2 m/s 750 mmHg 55%
    11:00 +21°C° 0 mm 3 m/s 749 mmHg 52%
    12:00 +22°C° 0 mm 3 m/s 749 mmHg 49%
    13:00 +24°C° 0 mm 3 m/s 749 mmHg 46%
    14:00 +24°C° 0 mm 3 m/s 749 mmHg 45%
    15:00 +24°C° 0 mm 3 m/s 748 mmHg 45%
    16:00 +24°C° 0 mm 3 m/s 748 mmHg 45%
    17:00 +22°C° 0 mm 3 m/s 747 mmHg 50%
    18:00 +21°C° 0 mm 3 m/s 747 mmHg 55%
    19:00 +20°C° 0 mm 3 m/s 747 mmHg 60%
    20:00 +19°C° 0 mm 2 m/s 747 mmHg 65%
    21:00 +18°C° 0 mm 2 m/s 747 mmHg 70%
    22:00 +17°C° 0 mm 2 m/s 747 mmHg 75%
    23:00 +16°C° 0 mm 2 m/s 747 mmHg 78%

    Demain, 27 Mai, Lundi

    Heure Température Précipitation Vent Pression Humidité
    00:00 +15°C° 0 mm 2 m/s 747 mmHg 81%
    01:00 +15°C° 0 mm 2 m/s 747 mmHg 85%
    02:00 +15°C° 0 mm 2 m/s 747 mmHg 86%
    03:00 +15°C° 0 mm 2 m/s 746 mmHg 86%
    04:00 +15°C° 0 mm 2 m/s 746 mmHg 87%
    05:00 +15°C° 0 mm 2 m/s 746 mmHg 85%
    06:00 +16°C° 0 mm 2 m/s 746 mmHg 83%
    07:00 +16°C° 0 mm 3 m/s 746 mmHg 80%
    08:00 +16°C° 0.1 mm 3 m/s 746 mmHg 79%
    09:00 +17°C° 0.1 mm 3 m/s 746 mmHg 79%
    10:00 +17°C° 0.1 mm 3 m/s 746 mmHg 78%
    11:00 +18°C° 0.1 mm 3 m/s 746 mmHg 76%
    12:00 +18°C° 0.1 mm 3 m/s 746 mmHg 74%
    13:00 +19°C° 0.1 mm 3 m/s 745 mmHg 71%
    14:00 +19°C° 0.2 mm 3 m/s 745 mmHg 70%
    15:00 +20°C° 0.2 mm 3 m/s 745 mmHg 69%
    16:00 +20°C° 0.2 mm 3 m/s 744 mmHg 68%
    17:00 +19°C° 0 mm 3 m/s 744 mmHg 70%
    18:00 +19°C° 0 mm 2 m/s 744 mmHg 72%
    19:00 +18°C° 0 mm 2 m/s 744 mmHg 75%
    20:00 +18°C° 0 mm 1 m/s 744 mmHg 78%
    21:00 +16°C° 0 mm 1 m/s 745 mmHg 82%
    22:00 +15°C° 0 mm 1 m/s 745 mmHg 85%
    23:00 +15°C° 0 mm 1 m/s 745 mmHg 85%

    Après-demain, 28 Mai, Mardi

    Heure Température Précipitation Vent Pression Humidité
    00:00 +14°C° 0 mm 1 m/s 745 mmHg 84%
    01:00 +14°C° 0 mm 1 m/s 744 mmHg 83%
    02:00 +14°C° 0 mm 1 m/s 744 mmHg 81%
    03:00 +14°C° 0 mm 1 m/s 744 mmHg 78%
    04:00 +14°C° 0 mm 1 m/s 744 mmHg 76%
    05:00 +14°C° 0 mm 1 m/s 744 mmHg 74%
    06:00 +15°C° 0 mm 1 m/s 744 mmHg 73%
    07:00 +15°C° 0 mm 2 m/s 744 mmHg 71%
    08:00 +16°C° 0.1 mm 2 m/s 744 mmHg 68%
    09:00 +16°C° 0.1 mm 3 m/s 744 mmHg 66%
    10:00 +17°C° 0.1 mm 4 m/s 744 mmHg 63%
    11:00 +18°C° 0.1 mm 4 m/s 744 mmHg 58%
    12:00 +18°C° 0.1 mm 4 m/s 744 mmHg 54%
    13:00 +19°C° 0.1 mm 4 m/s 744 mmHg 50%
    14:00 +19°C° 0.4 mm 4 m/s 744 mmHg 52%
    15:00 +19°C° 0.4 mm 4 m/s 744 mmHg 53%
    16:00 +19°C° 0.4 mm 4 m/s 743 mmHg 55%
    17:00 +18°C° 0.1 mm 4 m/s 744 mmHg 58%
    18:00 +17°C° 0.1 mm 3 m/s 744 mmHg 60%
    19:00 +16°C° 0.1 mm 3 m/s 744 mmHg 63%
    20:00 +15°C° 0 mm 2 m/s 745 mmHg 67%
    21:00 +14°C° 0 mm 2 m/s 745 mmHg 70%
    22:00 +13°C° 0 mm 2 m/s 746 mmHg 74%
    23:00 +12°C° 0 mm 2 m/s 746 mmHg 77%

    29 Mai, Mercredi

    Heure Température Précipitation Vent Pression Humidité
    00:00 +12°C° 0 mm 1 m/s 747 mmHg 80%
    01:00 +11°C° 0 mm 1 m/s 747 mmHg 83%
    02:00 +11°C° 0 mm 1 m/s 747 mmHg 85%
    03:00 +11°C° 0 mm 1 m/s 748 mmHg 87%
    04:00 +10°C° 0 mm 1 m/s 748 mmHg 88%
    05:00 +10°C° 0 mm 2 m/s 749 mmHg 85%
    06:00 +12°C° 0 mm 2 m/s 749 mmHg 83%
    07:00 +13°C° 0 mm 2 m/s 749 mmHg 80%
    08:00 +13°C° 0 mm 2 m/s 750 mmHg 78%
    09:00 +14°C° 0 mm 2 m/s 750 mmHg 76%
    10:00 +14°C° 0 mm 2 m/s 751 mmHg 74%
    11:00 +16°C° 0.2 mm 2 m/s 751 mmHg 69%
    12:00 +17°C° 0.2 mm 3 m/s 751 mmHg 64%
    13:00 +18°C° 0.2 mm 3 m/s 751 mmHg 59%
    14:00 +18°C° 0.2 mm 3 m/s 752 mmHg 58%
    15:00 +18°C° 0.2 mm 3 m/s 752 mmHg 57%
    16:00 +19°C° 0.2 mm 3 m/s 752 mmHg 56%
    17:00 +18°C° 0.1 mm 2 m/s 752 mmHg 58%
    18:00 +18°C° 0.1 mm 2 m/s 752 mmHg 60%
    19:00 +17°C° 0.1 mm 2 m/s 753 mmHg 62%
    20:00 +16°C° 0 mm 1 m/s 753 mmHg 66%
    21:00 +14°C° 0 mm 1 m/s 754 mmHg 71%
    22:00 +13°C° 0 mm 1 m/s 755 mmHg 75%
    23:00 +12°C° 0 mm 1 m/s 755 mmHg 77%

    30 Mai, Jeudi

    Heure Température Précipitation Vent Pression Humidité
    00:00 +11°C° 0 mm 0 m/s 755 mmHg 80%
    01:00 +10°C° 0 mm 0 m/s 755 mmHg 82%
    02:00 +11°C° 0 mm 1 m/s 755 mmHg 84%
    03:00 +11°C° 0 mm 1 m/s 755 mmHg 85%
    04:00 +10°C° 0 mm 1 m/s 755 mmHg 86%
    05:00 +11°C° 0 mm 1 m/s 755 mmHg 84%
    06:00 +12°C° 0 mm 2 m/s 756 mmHg 81%
    07:00 +13°C° 0 mm 2 m/s 756 mmHg 78%
    08:00 +15°C° 0 mm 2 m/s 756 mmHg 72%
    09:00 +17°C° 0 mm 3 m/s 755 mmHg 66%
    10:00 +18°C° 0 mm 3 m/s 755 mmHg 60%
    11:00 +19°C° 0 mm 3 m/s 755 mmHg 57%
    12:00 +20°C° 0 mm 4 m/s 755 mmHg 54%
    13:00 +21°C° 0 mm 4 m/s 754 mmHg 51%
    14:00 +21°C° 0 mm 4 m/s 754 mmHg 51%
    15:00 +22°C° 0 mm 5 m/s 754 mmHg 51%
    16:00 +22°C° 0 mm 5 m/s 754 mmHg 51%
    17:00 +21°C° 0 mm 4 m/s 754 mmHg 56%
    18:00 +20°C° 0 mm 4 m/s 754 mmHg 62%
    19:00 +19°C° 0 mm 3 m/s 754 mmHg 68%
    20:00 +18°C° 0.2 mm 3 m/s 754 mmHg 73%
    21:00 +17°C° 0.2 mm 3 m/s 754 mmHg 79%
    22:00 +17°C° 0.2 mm 3 m/s 754 mmHg 84%
    23:00 +16°C° 1.5 mm 3 m/s 754 mmHg 87%

    31 Mai, Vendredi

    Heure Température Précipitation Vent Pression Humidité
    00:00 +16°C° 1.5 mm 3 m/s 754 mmHg 90%
    01:00 +16°C° 1.5 mm 3 m/s 753 mmHg 93%
    02:00 +16°C° 0.7 mm 3 m/s 753 mmHg 93%
    03:00 +16°C° 0.7 mm 3 m/s 753 mmHg 92%
    04:00 +16°C° 0.7 mm 3 m/s 753 mmHg 92%
    05:00 +16°C° 0.1 mm 3 m/s 753 mmHg 91%
    06:00 +16°C° 0.1 mm 3 m/s 754 mmHg 89%
    07:00 +16°C° 0.1 mm 3 m/s 754 mmHg 88%
    08:00 +17°C° 0.3 mm 3 m/s 754 mmHg 86%
    09:00 +18°C° 0.3 mm 3 m/s 755 mmHg 83%
    10:00 +18°C° 0.3 mm 3 m/s 755 mmHg 81%
    11:00 +18°C° 0.7 mm 3 m/s 755 mmHg 79%
    12:00 +18°C° 0.7 mm 4 m/s 756 mmHg 78%
    13:00 +19°C° 0.7 mm 4 m/s 756 mmHg 76%
    14:00 +19°C° 0.1 mm 4 m/s 756 mmHg 68%
    15:00 +20°C° 0.1 mm 4 m/s 757 mmHg 61%
    16:00 +20°C° 0.1 mm 4 m/s 757 mmHg 54%
    17:00 +20°C° 0 mm 4 m/s 757 mmHg 54%
    18:00 +19°C° 0 mm 4 m/s 758 mmHg 55%
    19:00 +18°C° 0 mm 3 m/s 758 mmHg 55%
    20:00 +16°C° 0 mm 3 m/s 759 mmHg 56%
    21:00 +14°C° 0 mm 3 m/s 760 mmHg 57%
    22:00 +12°C° 0 mm 3 m/s 760 mmHg 58%
    23:00 +13°C° 0 mm 2 m/s 761 mmHg 63%
    Voir plus